Weather Roundup
Issued by NWS

Home | Current Version | Previous Version | Graphics & Text | Print | Product List | Glossary Off
Versions: 1 2 3 4 5 6 7 8 9 10 11 12 13 14 15 16 17 18 19 20 21 22 23 24 25 26 27 28 29 30 31 32 33 34 35 36 37 38 39 40 41 42 43 44 45 46 47 48 49 50

000
NZUS93 KARX 230710
HRRWXR

CURRENT HOURLY OBSERVATIONS ACROSS
MUCH OF THE UPPER MISSISSIPPI VALLEY
NATIONAL WEATHER SERVICE LA CROSSE WI
200 AM CDT SAT MAY 23 2015


...SOUTHEAST MINNESOTA...


CITY           SKY/WX    TMP DP  RH WIND       PRES   REMARKS
ROCHESTER      PTCLDY    54  39  57 SE7       30.23S
ROCHESTER/MAYO FAIR      58  38  46 SE7       30.22S
WINONA         PTCLDY    48  46  93 CALM      30.23S
AUSTIN         MOCLDY    54  41  62 CALM      30.22R
ALBERT LEA     MOCLDY    61  43  51 NW6       30.22S
DODGE CENTER   PTCLDY    57  39  51 SE8       30.21S
PRESTON        MOCLDY    55  40  58 CALM      30.22S
OWATONNA       PTCLDY    57  37  47 SE3       30.22R
FARIBAULT      PTCLDY    55  39  54 SE3       30.21S
$$

...ELSEWHERE IN MINNESOTA...


CITY           SKY/WX    TMP DP  RH WIND       PRES   REMARKS
MINNEAPOLIS    PTCLDY    59  38  45 SE5       30.20S
INTNL FALLS    PTCLDY    49  40  71 SW3       30.12R
DULUTH         CLEAR     55  36  48 W9        30.18S
RED WING       CLEAR     46  43  87 CALM      30.21S
REDWOOD FALLS  MOCLDY    57  43  59 NW3       30.21S
MANKATO        PTCLDY    57  39  51 NW8       30.22R
WORTHINGTON    CLOUDY    54  41  62 CALM      30.22R
FAIRMONT       CLOUDY    57  39  51 NW5       30.21S
$$

...SOUTHWEST WISCONSIN...


CITY           SKY/WX    TMP DP  RH WIND       PRES   REMARKS
LA CROSSE      PTCLDY    52  44  74 SE6       30.23R
PRAIRIE DU CHI MOCLDY    52  45  76 E3        30.23S
BOSCOBEL       MOCLDY    50  45  83 N5        30.25R
LONE ROCK      CLOUDY    53  42  66 E6        30.26R
PLATTEVILLE    CLOUDY    56  41  56 SE8       30.25S
FORT MC COY    PTCLDY    40  38  95 CALM      30.25S
CAMP DOUGLAS   PTCLDY    41  41 100 E3        30.24R
VIROQUA        FAIR      58  37  46 SE5       30.24S
WIS DELLS      MOCLDY    54  32  43 S9        30.25S
$$

...ELSEWHERE IN WISCONSIN...


CITY           SKY/WX    TMP DP  RH WIND       PRES   REMARKS
MILWAUKEE      MOCLDY    50  30  46 S7        30.28S
MADISON        MOCLDY    54  31  41 S12       30.27S
GREEN BAY      CLEAR     44  35  70 CALM      30.27R
EAU CLAIRE     CLEAR     45  39  79 CALM      30.22S
BLACK RVR FLS  FAIR      38  38 100 CALM      30.23S
MEDFORD        CLEAR     41  37  86 CALM      30.24S
WAUSAU         CLEAR     43  40  89 E7        30.24R
WIS RAPIDS     PTCLDY    51  36  56 S6        30.26R
MARSHFIELD     CLEAR     50  37  61 CALM      30.24R
RICE LAKE      CLEAR     45  43  93 CALM      30.24R
$$

...NORTHEAST IOWA...


CITY           SKY/WX    TMP DP  RH WIND       PRES   REMARKS
DECORAH        FAIR      57  41  54 CALM      30.22R
MASON CITY     CLOUDY    55  46  71 NW5       30.23S
CHARLES CITY   CLOUDY    57  43  58 W8        30.22R
OELWEIN        MOCLDY    55  45  67 S5        30.23S
$$

...ELSEWHERE IN IOWA...


CITY           SKY/WX    TMP DP  RH WIND       PRES   REMARKS
DES MOINES     MOCLDY    60  48  64 CALM      30.22S
IOWA CITY      CLOUDY    62  49  62 CALM      30.24R
FORT DODGE     CLOUDY    55  48  76 NE3       30.22R
$$

...NORTHERN ILLINOIS...


CITY           SKY/WX    TMP DP  RH WIND       PRES   REMARKS
CHICAGO-OHARE  MOCLDY    50  32  50 SE5       30.28F
CHICAGO-MIDWAY MOCLDY    55  39  54 E5        30.29S
MOLINE         MOCLDY    57  48  72 E7        30.23S
ROCKFORD       CLEAR     52  33  48 CALM      30.30S
PEORIA         MOCLDY    61  47  59 NE6       30.25S
$$

NOTE: "FAIR" INDICATES FEW OR NO CLOUDS BELOW 12,000 FEET WITH NO
SIGNIFICANT WEATHER AND/OR OBSTRUCTIONS TO VISIBILITY. WIND
SPEEDS ARE IN MILES-PER-HOUR.



USA.gov is the U.S. government's official web portal to all federal, state and local government web resources and services.